Home > Weather > Flensburg > Past weeks

Flag for Germany Past Weather in Flensburg, Schleswig-Holstein, Germany — Yesterday and Last 2 Weeks

Now
64 °F

Passing clouds.


Feels Like: 64 °F
Forecast: 56 / 69 °F
Wind: 3 mph from South

Location: Soenderborg Lufthavn

Current Time: Jul 29, 2016 at 11:42:54 PM

Latest Report: Jul 29, 2016 at 11:20 PM


Visibility: N/A

Pressure: 29.77 "Hg

Humidity: 88%

Dew Point: 61 °F

Location of FlensburgLocation

Past Weather in Flensburg — Graph

°F

Flensburg Temperature Yesterday

Maximum temperature yesterday: 73 °F (at 4:20 PM)
Minimum temperature yesterday: 59 °F (at 6:20 AM)
Average temperature yesterday: 66 °F

High & Low Weather Summary for the Past Weeks

 TemperatureHumidityPressure
High79 °F (Jul 20, 4:20 PM)100% (Jul 20, 2:50 AM)30.15 "Hg (Jul 20, 2:50 AM)
Low52 °F (Jul 16, 1:20 AM)39% (Jul 23, 2:50 PM)29.77 "Hg (Jul 29, 12:50 PM)
Average66 °F77%30.03 "Hg
* Reported Jul 14 10:20 PM — Jul 29 10:20 PM, Flensburg, Weather by CustomWeather, © 2016

Note: Actual official high and low records may vary slightly from our data, if they occured in-between our weather recording intervals... More about our weather records

Advertising

Flensburg Weather History for the Previous 24 Hours

Scroll right to see more
 ConditionsComfort  
Time TempWeatherWind HumidityBarometerVisibility
10:20 PM
Fri, Jul 29
64 °FBroken clouds.3 mph83%29.77 "HgN/A
9:50 PM66 °FBroken clouds.3 mph78%29.77 "HgN/A
9:20 PM66 °FBroken clouds.5 mph78%29.77 "HgN/A
8:50 PM68 °FPartly sunny.5 mph78%29.77 "HgN/A
8:20 PM68 °FPartly sunny.6 mph78%29.77 "HgN/A
7:50 PM70 °FPartly sunny.7 mph69%29.77 "HgN/A
7:20 PM68 °FPartly sunny.6 mph78%29.77 "HgN/A
6:50 PM70 °FScattered clouds.5 mph73%29.77 "HgN/A
6:20 PM70 °FScattered clouds.7 mph69%29.77 "HgN/A
5:50 PM68 °FPartly sunny.7 mph73%29.77 "HgN/A
5:20 PM68 °FPartly sunny.10 mph73%29.77 "HgN/A
4:50 PM68 °FPartly sunny.10 mph73%29.77 "HgN/A
4:20 PM70 °FPartly sunny.9 mph60%29.77 "HgN/A
3:50 PM72 °FPartly sunny.9 mph65%29.77 "HgN/A
3:20 PM72 °FBroken clouds.9 mph65%29.77 "HgN/A
2:50 PM70 °FBroken clouds.10 mph64%29.77 "HgN/A
2:20 PM72 °FBroken clouds.8 mph61%29.77 "HgN/A
1:50 PM72 °FPartly sunny.7 mph61%29.77 "HgN/A
1:20 PM72 °FPartly sunny.5 mph65%29.77 "HgN/A
12:50 PM70 °FPartly sunny.7 mph73%29.77 "HgN/A
12:20 PM68 °FBroken clouds.8 mph73%29.80 "HgN/A
11:50 AM68 °FBroken clouds.8 mph78%29.80 "HgN/A
11:25 AM68 °FBroken clouds.6 mph78%29.80 "HgN/A
10:50 AM68 °FBroken clouds.5 mph83%29.80 "HgN/A
10:20 AM66 °FBroken clouds.5 mph83%29.80 "HgN/A
9:50 AM66 °FBroken clouds.2 mph88%29.80 "HgN/A
9:20 AM66 °FBroken clouds.2 mph83%29.80 "HgN/A
8:50 AM66 °FPartly sunny.1 mph83%29.80 "HgN/A
8:25 AM64 °FPartly sunny.No wind88%29.80 "HgN/A
7:50 AM64 °FPartly sunny.1 mph88%29.80 "HgN/A
7:21 AM63 °FBroken clouds.2 mph94%29.80 "HgN/A
6:50 AM63 °FPartly sunny.No wind94%29.80 "HgN/A
6:20 AM61 °FRain showers. Overcast.6 mph100%29.80 "Hg4 mi
5:50 AM63 °FRain showers. Passing clouds.2 mph88%29.80 "Hg4 mi
5:20 AM63 °FLight rain. Partly cloudy.2 mph88%29.80 "HgN/A
4:50 AM63 °FPassing clouds.6 mph88%29.83 "HgN/A
4:20 AM63 °FPassing clouds.2 mph88%29.83 "HgN/A
3:50 AM63 °FPartly cloudy.2 mph83%29.83 "HgN/A
3:20 AM63 °FPartly cloudy.5 mph83%29.83 "HgN/A
2:50 AM61 °FPartly cloudy.3 mph88%29.83 "HgN/A
2:20 AM63 °FPartly cloudy.1 mph88%29.86 "HgN/A
1:50 AM63 °FPassing clouds.No wind83%29.86 "HgN/A
1:20 AM63 °FPassing clouds.2 mph83%29.86 "HgN/A
12:50 AM63 °FPassing clouds.2 mph83%29.86 "HgN/A
12:20 AM63 °FPassing clouds.5 mph83%29.86 "HgN/A
11:50 PM
Thu, Jul 28
63 °FPassing clouds.2 mph83%29.86 "HgN/A
11:20 PM63 °FPassing clouds.1 mph83%29.89 "HgN/A
Weather by CustomWeather, © 2016

See weather overviewHow to use our weather pages